METEOSAT-5 (MOP-2) 1 21140U 91015B 10075.84687126 -.00000066 00000-0 10000-3 0 1347 2 21140 11.5027 46.2274 0004260 167.1263 192.9295 0.98450794 71763 METEOSAT-6 (MOP-3) 1 22912U 93073B 10074.91972606 -.00000017 00000-0 00000+0 0 5141 2 22912 8.9967 56.6609 0002996 323.7299 191.6682 1.00275408 58193 HIMAWARI-5 (GMS-5) 1 23522U 95011B 10076.10486941 .00000064 00000-0 10000-3 0 4110 2 23522 8.1705 59.6652 0008509 326.9041 33.1628 0.99405912 54659 GOES 10 1 24786U 97019A 10076.58169730 -.00000011 00000-0 10000-3 0 3683 2 24786 4.2004 69.7264 0003600 19.7643 137.4486 0.99072680 47232 ORBVIEW 2 (SEASTAR) 1 24883U 97037A 10075.97314759 .00000031 00000-0 16515-4 0 817 2 24883 98.3719 207.1088 0002543 78.7822 281.3649 14.60029198672242 METEOSAT-7 1 24932U 97049B 10075.00410896 .00000065 00000-0 00000+0 0 9552 2 24932 5.8543 66.2753 0001593 331.3707 195.0872 1.00281286 45917 NOAA 15 1 25338U 98030A 10077.07335780 .00000151 00000-0 83149-4 0 3067 2 25338 98.6123 65.6610 0010390 345.7408 14.3513 14.24812921615777 GOES 11 1 26352U 00022A 10076.16293441 .00000093 00000-0 10000-3 0 7507 2 26352 0.1974 85.6598 0001284 247.0101 124.9544 1.00273745 36144 FENGYUN 2B 1 26382U 00032A 10075.82725896 -.00000272 00000-0 10000-3 0 2467 2 26382 5.0032 69.0736 0003644 226.9059 133.3241 1.00094912 35599 NOAA 16 1 26536U 00055A 10076.28545715 .00000021 00000-0 36602-4 0 7838 2 26536 99.1760 91.5681 0009918 232.5949 127.4307 14.12550581488856 GOES 12 1 26871U 01031A 10076.17659190 -.00000249 00000-0 00000+0 0 4878 2 26871 0.3282 86.6575 0003038 313.8271 123.2201 1.00278037 31741 FENGYUN 1D 1 27431U 02024B 10075.98964111 -.00000146 00000-0 -59537-4 0 8295 2 27431 98.6564 59.7126 0015713 3.7563 356.3697 14.09292086403230 NOAA 17 1 27453U 02032A 10076.38079653 .00000244 00000-0 12421-3 0 7871 2 27453 98.4428 130.4748 0012460 49.3414 310.8842 14.24140682401635 METEOSAT-8 (MSG-1) 1 27509U 02040B 10076.07158037 .00000064 00000-0 10000-3 0 4690 2 27509 0.5218 29.1534 0001333 205.8286 334.5105 1.00273004 27733 KALPANA-1 (METSAT 1) 1 27525U 02043A 10075.63641758 -.00000077 00000-0 10000-3 0 971 2 27525 0.0469 264.2474 0005923 144.0659 68.9053 1.00273459 27538 INSAT-3A 1 27714U 03013A 10074.72003528 -.00000259 00000-0 10000-3 0 438 2 27714 0.0013 207.6123 0004235 211.4701 106.8126 1.00271467 25423 FENGYUN 2C 1 28451U 04042A 10076.78281767 -.00000354 00000-0 10000-3 0 8143 2 28451 2.0683 74.7449 0001545 323.7572 182.0427 1.00276763 19792 HIMAWARI 6 (MTSAT-1R) 1 28622U 05006A 10074.42507977 -.00000283 00000-0 10000-3 0 3413 2 28622 0.0462 9.4737 0002287 173.5337 282.9605 1.00268954 18479 NOAA 18 1 28654U 05018A 10076.28059177 -.00000061 00000-0 -92621-5 0 2720 2 28654 98.9409 22.8492 0013798 315.8675 44.1405 14.11335594248475 METEOSAT-9 (MSG-2) 1 28912U 05049B 10076.07135066 -.00000000 00000-0 00000+0 0 6315 2 28912 0.2224 76.2425 0000450 289.8177 194.1791 1.00278822 15582 MTSAT-2 1 28937U 06004A 10076.45041142 -.00000240 00000-0 10000-3 0 7173 2 28937 0.0299 256.8919 0002811 94.3767 130.7852 1.00275294 14976 FORMOSAT 3A 1 29047U 06011A 10076.72927676 -.00004051 00000-0 -16230-2 0 1909 2 29047 71.9806 184.4725 0051561 32.3401 328.0590 14.27079567206752 FORMOSAT 3B 1 29048U 06011B 10076.47826246 .00000390 00000-0 17471-3 0 2408 2 29048 71.9697 100.1339 0045234 342.2032 17.7500 14.27143941209192 FORMOSAT 3C 1 29049U 06011C 10076.91424475 .00000361 00000-0 16364-3 0 1885 2 29049 72.0192 249.8479 0034982 43.1909 317.1956 14.27157040205035 FORMOSAT 3D 1 29050U 06011D 10076.04441044 .00001102 00000-0 26646-3 0 4704 2 29050 72.0091 45.0448 0054395 270.2487 89.2407 14.54148742210900 FORMOSAT 3E 1 29051U 06011E 10076.80616654 .00000373 00000-0 16522-3 0 2451 2 29051 72.0086 158.6074 0071277 273.6306 85.6678 14.27151858207601 FORMOSAT 3F 1 29052U 06011F 10076.92405126 .00000360 00000-0 16273-3 0 2667 2 29052 72.0343 221.2881 0040991 12.0657 348.1425 14.27163738205924 GOES 13 1 29155U 06018A 10077.10372013 -.00000176 00000-0 99999-4 0 220 2 29155 0.3741 265.9930 0002462 229.2033 344.3354 1.00404265 14001 METOP-A 1 29499U 06044A 10076.28719974 .00000057 00000-0 45940-4 0 605 2 29499 98.6830 137.3374 0000764 110.6869 249.4423 14.21499751176819 FENGYUN 2D 1 29640U 06053A 10075.58692667 -.00000196 00000-0 10000-3 0 8582 2 29640 0.4347 100.1324 0002491 291.8663 79.8134 1.00269956 12039 FENGYUN 3A 1 32958U 08026A 10076.66724466 .00000167 00000-0 10000-3 0 5486 2 32958 98.7355 150.0854 0001446 66.3494 293.7821 14.19608946 93581 NOAA 19 1 33591U 09005A 10076.24864136 .00000433 00000-0 26451-3 0 4719 2 33591 98.7806 20.3607 0014023 186.2281 173.8729 14.11035893 56943 GOES 14 1 35491U 09033A 10076.52796361 -.00000090 00000-0 10000-3 0 3897 2 35491 0.1754 259.3551 0002790 127.6275 233.5033 1.00272819 2662 METEOR-M 1 1 35865U 09049A 10075.87699604 .00000176 00000-0 10000-3 0 1519 2 35865 98.7703 130.2893 0001658 281.8851 78.2101 14.21829006 25607